Regional Weather Roundup
Issued by NWS

Home | Current Version | Previous Version | Text Only | Print | Product List | Glossary On
Versions: 1 2 3 4 5 6 7 8 9 10 11 12 13 14 15 16 17 18 19 20 21 22 23 24 25 26 27 28 29 30 31 32 33 34 35 36 37 38 39 40 41 42 43 44 45 46 47 48 49 50
000
ASUS43 KLSX 240410
RWRMO

WEATHER SUMMARY FOR MISSOURI
NATIONAL WEATHER SERVICE SPRINGFIELD MO
1100 PM CDT SUN JUL 23 2017

NOTE: "FAIR" INDICATES FEW OR NO CLOUDS BELOW 12,000 FEET WITH NO
       SIGNIFICANT WEATHER AND/OR OBSTRUCTIONS TO VISIBILITY.
       CURRENT SKY AND/OR WEATHER CONDITIONS ARE NOT AVAILABLE FOR
       CHILLICOTHE AND FARMINGTON.

MOZ001>031-035>038-043-044-053-054-240500-
...NORTHERN AND WESTERN MISSOURI...

CITY           SKY/WX    TMP DP  RH WIND       PRES   REMARKS
KANSAS CTY INT PTCLDY    77  70  79 N7        29.95R
KANSAS C DTWN  CLEAR     84  74  71 CALM      29.93R HX  91
LEE`S SUMMIT   PTCLDY    82  77  84 N6        29.95R HX  90
ST JOSEPH      CLEAR     73  70  90 N8        29.96R
CHILLICOTHE      N/A     77  67  71 N3        29.95R
KIRKSVILLE     PTCLDY    72  64  76 NE5       29.97R

$$
MOZ066>068-077>081-088>096-101>105-240500-
...SOUTHWEST MISSOURI...

CITY           SKY/WX    TMP DP  RH WIND       PRES   REMARKS
SPRINGFIELD    PTCLDY    79  71  76 NW3       29.93F
JOPLIN         PTCLDY    77  72  84 NW5       29.94S
BRANSON        CLOUDY    75  68  78 CALM      29.95S

$$
MOZ032>034-039>042-045>050-055>058-069>072-240500-
...CENTRAL MISSOURI...

CITY           SKY/WX    TMP DP  RH WIND       PRES   REMARKS
COLUMBIA       CLEAR     79  72  79 W3        29.92R
JEFFERSON CITY CLEAR     75  73  93 CALM      29.90R
ROLLA          CLOUDY    73  70  90 CALM      29.93R
SEDALIA        PTCLDY    79  75  87 SW6       29.94R
WHITEMAN AFB   CLOUDY    78  78 100 SW3       29.92R
OSAGE BEACH    CLOUDY    75  70  84 CALM      29.93S

$$
MOZ051-052-059>065-240500-
...EAST CENTRAL MISSOURI...

CITY           SKY/WX    TMP DP  RH WIND       PRES   REMARKS
ST LOUIS INTL  PTCLDY    84  70  62 W5        29.88R
SPIRIT OF STL  PTCLDY    76  74  93 W3        29.87R
ST CHARLES     CLOUDY    78  75  90 CALM      29.87R

$$
MOZ072>076-082>087-097>100-106>115-240500-
...SOUTH CENTRAL AND SOUTHEAST MISSOURI...

CITY           SKY/WX    TMP DP  RH WIND       PRES   REMARKS
CAPE GIRARDEAU PTCLDY    74  71  91 S5        29.89R
FARMINGTON     CLEAR     76  70  82 CALM      29.92S
POPLAR BLUFF   PTCLDY    78  73  84 S5        29.90R
WEST PLAINS    CLOUDY    72  67  84 CALM      29.95S

$$



USA.gov is the U.S. government's official web portal to all federal, state and local government web resources and services.